This is the latest recevied weather packets stored in our database for station/object OE1HTB-13. If no packets are shown the sender has not sent any weather packets the latest 10 day(s).
| Time | Temp. | Humidity | Pressure | Rain* | Wind** | Luminosity | Snow |
|---|---|---|---|---|---|---|---|
| 1777612571 | 7.22° C | 55% | 1028.6 hPa | 0 mm | - | 116 W/m² | - |
| 1777611671 | 6.67° C | 54% | 1028.6 hPa | 0 mm | - | 160 W/m² | - |
| 1777610771 | 6.11° C | 54% | 1028.6 hPa | 0 mm | - | 102 W/m² | - |
| 1777609871 | 5.56° C | 55% | 1028.5 hPa | 0 mm | - | 54 W/m² | - |
| 1777608971 | 5° C | 57% | 1028.4 hPa | 0 mm | - | 14 W/m² | - |
| 1777608070 | 5° C | 57% | 1028.3 hPa | 0 mm | - | 11 W/m² | - |
| 1777607170 | 5° C | 58% | 1028.2 hPa | 0 mm | - | 5 W/m² | - |
| 1777606270 | 5.56° C | 55% | 1028.1 hPa | 0 mm | - | 0 W/m² | - |
| 1777605370 | 5° C | 56% | 1028.1 hPa | 0 mm | - | 0 W/m² | - |
| 1777604470 | 5° C | 55% | 1028.2 hPa | 0 mm | - | 0 W/m² | - |
| 1777603570 | 5° C | 55% | 1028.3 hPa | 0 mm | - | 0 W/m² | - |
| 1777602676 | 5° C | 56% | 1028.4 hPa | 0 mm | - | 0 W/m² | - |
| 1777601774 | 5° C | 55% | 1028.4 hPa | 0 mm | - | 0 W/m² | - |
| 1777600874 | 5.56° C | 56% | 1028.5 hPa | 0 mm | - | 0 W/m² | - |
| 1777599976 | 5.56° C | 55% | 1028.5 hPa | 0 mm | - | 0 W/m² | - |
| 1777599074 | 6.11° C | 54% | 1028.5 hPa | 0 mm | - | 0 W/m² | - |
| 1777598174 | 6.11° C | 53% | 1028.5 hPa | 0 mm | - | 0 W/m² | - |
| 1777597274 | 6.11° C | 52% | 1028.6 hPa | 0 mm | - | 0 W/m² | - |
| 1777596374 | 6.11° C | 53% | 1028.6 hPa | 0 mm | - | 0 W/m² | - |
| 1777595473 | 6.11° C | 52% | 1028.6 hPa | 0 mm | - | 0 W/m² | - |
| 1777594573 | 6.11° C | 50% | 1028.6 hPa | 0 mm | - | 0 W/m² | - |
| 1777593673 | 6.67° C | 49% | 1028.6 hPa | 0 mm | - | 0 W/m² | - |
| 1777592773 | 6.67° C | 49% | 1028.7 hPa | 0 mm | - | 0 W/m² | - |
| 1777591873 | 6.67° C | 46% | 1028.7 hPa | 0 mm | - | 0 W/m² | - |
| 1777590974 | 7.22° C | 46% | 1028.7 hPa | 0 mm | - | 0 W/m² | - |
* Rain latest hour (hover to see other rain measurements)
** Current wind speed in m/s (hover to see current wind gust speed)